This demonstration page uses our WeatherBlox Daily Observations layout. Learn more.

Left ArrowRight Arrow

Hourly Observations for June 11, 2021

Temp ( °F °C ) Dew Point ( °F °C ) Humidity (%) Winds ( mph kmh ) Pressure ( in mb ) Visibility ( mi km ) Precip ( " mm )
12:15 am 00:15 Cloudy with Light Rain 59 15 59 15 100 100 E 8 13 29.97 1015 5 8.0467 0.02 0.508
12:35 am 00:35 Cloudy with Rain 59 15 59 15 100 100 ESE 7 11 29.97 1015 5 8.0467 0.04 1.016
12:55 am 00:55 Cloudy with Light Rain 59 15 59 15 100 100 E 6 9 29.97 1015 7 11.26538 0.05 1.27
1:15 am 01:15 Cloudy with Rain 59 15 59 15 100 100 E 6 9 29.96 1015 7 11.26538 N/A
1:35 am 01:35 Cloudy with Light Rain 57 14 57 14 100 100 E 6 9 29.95 1014 7 11.26538 N/A
1:55 am 01:55 Cloudy with Light Rain 57 14 57 14 100 100 E 6 9 29.94 1014 5 8.0467 0.01 0.254
2:15 am 02:15 Cloudy with Light Rain 57 14 57 14 100 100 E 9 15 29.93 1014 7 11.26538 N/A
2:35 am 02:35 Cloudy with Light Rain 55 13 55 13 100 100 E 7 11 29.93 1014 7 11.26538 0.01 0.254
2:55 am 02:55 Cloudy with Light Rain 55 13 55 13 100 100 ESE 8 13 29.93 1014 10 16.0934 0.02 0.508
3:15 am 03:15 Cloudy 55 13 55 13 100 100 E 7 11 29.92 1013 10 16.0934 N/A
3:35 am 03:35 Cloudy 55 13 55 13 100 100 ENE 7 11 29.92 1013 10 16.0934 N/A
3:55 am 03:55 Cloudy with Light Rain 55 13 55 13 100 100 ENE 6 9 29.91 1013 4 6.43736 N/A
4:15 am 04:15 Cloudy with Rain 55 13 55 13 100 100 ENE 6 9 29.91 1013 4 6.43736 0.01 0.254
4:35 am 04:35 Cloudy with Light Rain 55 13 55 13 100 100 ENE 3 6 29.92 1013 5 8.0467 0.01 0.254
4:55 am 04:55 Cloudy with Drizzle 55 13 55 13 100 100 NE 3 6 29.92 1013 5 8.0467 0.02 0.508
5:15 am 05:15 Cloudy with Drizzle 55 13 55 13 100 100 NE 6 9 29.92 1013 4 6.43736 N/A
5:35 am 05:35 Cloudy with Mist and Fog 55 13 55 13 100 100 ENE 6 9 29.91 1013 4 6.43736 N/A
5:55 am 05:55 Cloudy with Mist and Fog 55 13 55 13 100 100 ENE 6 9 29.91 1013 5 8.0467 N/A
6:15 am 06:15 Cloudy with Rain 55 13 55 13 100 100 NE 6 9 29.91 1013 3 4.82802 0.01 0.254
6:35 am 06:35 Cloudy with Light Rain 55 13 55 13 100 100 NE 5 7 29.91 1013 3 4.82802 0.03 0.762
6:55 am 06:55 Cloudy with Rain 55 13 55 13 100 100 ENE 5 7 29.91 1013 2 3.21868 0.07 1.778
7:15 am 07:15 Cloudy with Rain 55 13 55 13 100 100 NE 7 11 29.9 1013 2.5 4.02335 0.07 1.778
7:35 am 07:35 Cloudy with Heavy Rain 55 13 55 13 100 100 NE 8 13 29.9 1013 2.5 4.02335 0.17 4.318
7:55 am 07:55 Cloudy with Rain 55 13 55 13 100 100 NE 8 13 29.9 1013 4 6.43736 0.23 5.842
8:15 am 08:15 Cloudy with Rain 54 12 54 12 100 100 NNE 5 7 29.91 1013 4 6.43736 0.01 0.254
8:35 am 08:35 Cloudy with Drizzle 54 12 54 12 100 100 NNE 5 7 29.91 1013 4 6.43736 0.02 0.508
8:55 am 08:55 Cloudy with Drizzle 54 12 54 12 100 100 NNE 8 13 29.91 1013 5 8.0467 0.03 0.762
9:15 am 09:15 Cloudy with Light Rain 54 12 54 12 100 100 NNE 8 13 29.91 1013 3 4.82802 0.01 0.254
9:35 am 09:35 Cloudy with Drizzle 54 12 54 12 100 100 NNE 8 13 29.91 1013 4 6.43736 0.02 0.508
9:55 am 09:55 Cloudy with Drizzle 54 12 54 12 100 100 NNE 7 11 29.9 1013 5 8.0467 0.02 0.508
10:15 am 10:15 Cloudy with Drizzle 54 12 54 12 100 100 NNE 7 11 29.9 1013 3 4.82802 0.01 0.254
10:35 am 10:35 Cloudy with Rain 54 12 54 12 100 100 N 7 11 29.91 1013 2.5 4.02335 0.04 1.016
10:55 am 10:55 Cloudy with Heavy Rain 54 12 54 12 100 100 NNE 7 11 29.91 1013 2.5 4.02335 0.12 3.048
11:15 am 11:15 Cloudy with Heavy Rain 54 12 54 12 100 100 NNE 7 11 29.91 1013 3 4.82802 0.08 2.032
11:35 am 11:35 Cloudy with Rain 54 12 54 12 100 100 NNE 7 11 29.91 1013 3 4.82802 0.15 3.81
11:55 am 11:55 Cloudy with Rain 54 12 54 12 100 100 NE 7 11 29.9 1013 7 11.26538 0.17 4.318
12:15 pm 12:15 Cloudy with Light Rain 54 12 54 12 100 100 NE 9 15 29.9 1013 10 16.0934 0.01 0.254
12:35 pm 12:35 Cloudy with Light Rain 54 12 54 12 100 100 NE 8 13 29.9 1013 10 16.0934 0.01 0.254
12:55 pm 12:55 Cloudy with Light Rain 54 12 54 12 100 100 NE 7 11 29.9 1013 10 16.0934 0.02 0.508
1:15 pm 13:15 Cloudy with Light Rain 54 12 54 12 100 100 NE 7 11 29.89 1012 10 16.0934 N/A
1:35 pm 13:35 Cloudy with Drizzle 54 12 54 12 100 100 NE 7 11 29.89 1012 10 16.0934 N/A
1:55 pm 13:55 Cloudy with Rain 54 12 54 12 100 100 NE 8 13 29.89 1012 10 16.0934 N/A
2:15 pm 14:15 Cloudy with Rain 54 12 54 12 100 100 NE 8 13 29.88 1012 7 11.26538 N/A
2:35 pm 14:35 Cloudy with Heavy Rain 54 12 54 12 100 100 NE 6 9 29.88 1012 3 4.82802 N/A
2:55 pm 14:55 Cloudy with Light Rain 54 12 54 12 100 100 NE 6 9 29.88 1012 7 11.26538 N/A
3:15 pm 15:15 Cloudy with Rain 54 12 54 12 100 100 NE 7 11 29.88 1012 7 11.26538 N/A
3:35 pm 15:35 Cloudy with Drizzle 54 12 54 12 100 100 NE 7 11 29.87 1012 10 16.0934 N/A
3:55 pm 15:55 Cloudy with Drizzle 54 12 54 12 100 100 NE 6 9 29.86 1011 10 16.0934 N/A
4:15 pm 16:15 Cloudy with Rain 54 12 54 12 100 100 NE 7 11 29.85 1011 10 16.0934 N/A
4:35 pm 16:35 Cloudy with Drizzle 54 12 54 12 100 100 NE 6 9 29.85 1011 5 8.0467 N/A
4:55 pm 16:55 Cloudy with Drizzle 54 12 54 12 100 100 NE 8 13 29.85 1011 2.5 4.02335 N/A
5:15 pm 17:15 Cloudy with Rain 54 12 54 12 100 100 NE 6 9 29.85 1011 4 6.43736 N/A
5:35 pm 17:35 Cloudy with Light Rain 54 12 54 12 100 100 NE 7 11 29.84 1011 5 8.0467 N/A
5:55 pm 17:55 Cloudy with Rain 52 11 52 11 100 100 NE 7 11 29.84 1011 4 6.43736 N/A
6:15 pm 18:15 Cloudy with Drizzle 52 11 52 11 100 100 NE 7 11 29.84 1011 2 3.21868 N/A
6:35 pm 18:35 Cloudy with Rain 52 11 52 11 100 100 NE 7 11 29.84 1011 1.75 2.816345 N/A
6:55 pm 18:55 Cloudy with Drizzle 52 11 52 11 100 100 NE 8 13 29.84 1011 2.5 4.02335 N/A
7:15 pm 19:15 Cloudy with Light Rain 52 11 52 11 100 100 NNE 6 9 29.85 1011 2 3.21868 N/A
7:35 pm 19:35 Cloudy with Rain 52 11 52 11 100 100 NNE 6 9 29.86 1011 2.5 4.02335 N/A
7:55 pm 19:55 Cloudy with Light Rain 52 11 52 11 100 100 NNE 8 13 29.85 1011 2 3.21868 N/A
8:15 pm 20:15 Cloudy with Drizzle 52 11 52 11 100 100 NNE 5 7 29.86 1011 3 4.82802 N/A
8:35 pm 20:35 Cloudy with Light Rain 52 11 52 11 100 100 NNE 6 9 29.85 1011 7 11.26538 N/A
8:55 pm 20:55 Cloudy with Rain 50 10 50 10 100 100 NNE 7 11 29.86 1011 5 8.0467 N/A
9:15 pm 21:15 Cloudy with Light Rain 50 10 50 10 100 100 NNE 7 11 29.86 1011 7 11.26538 N/A
9:35 pm 21:35 Cloudy with Drizzle 50 10 50 10 100 100 NNE 6 9 29.87 1011 5 8.0467 N/A
9:55 pm 21:55 Cloudy with Mist and Fog 50 10 50 10 100 100 NNE 10 17 29.87 1011 4 6.43736 N/A
10:15 pm 22:15 Cloudy with Mist and Fog 50 10 50 10 100 100 NNE 7 11 29.88 1012 4 6.43736 N/A
10:35 pm 22:35 Cloudy 50 10 50 10 100 100 NNE 7 11 29.88 1012 7 11.26538 N/A
10:55 pm 22:55 Cloudy 50 10 50 10 100 100 NNE 5 7 29.89 1012 7 11.26538 N/A
11:15 pm 23:15 Cloudy 50 10 50 10 100 100 NNE 6 9 29.89 1012 7 11.26538 N/A
11:35 pm 23:35 Cloudy with Light Rain 50 10 50 10 100 100 NNE 5 7 29.88 1012 5 8.0467 N/A
11:55 pm 23:55 Cloudy with Drizzle 50 10 50 10 100 100 NNE 7 11 29.88 1012 7 11.26538 N/A

Powered by AerisWeather